Regional Weather Roundup
Issued by NWS Austin/San Antonio, TX

Home | Current Version | Previous Version | Text Only | Print | Product List | Glossary On
Versions: 1 2 3 4 5 6 7 8 9 10 11 12 13 14 15 16 17 18 19 20 21 22 23 24 25 26 27 28 29 30 31 32 33 34 35 36 37 38 39 40 41 42 43 44 45 46 47 48 49 50
000
ASUS44 KEWX 261601
RWREWX
SOUTH TEXAS REGIONAL WEATHER ROUNDUP
NATIONAL WEATHER SERVICE AUSTIN/SAN ANTONIO TX
1100 AM CDT TUE MAY 26 2020

NOTE: "FAIR" INDICATED FEW OR NO CLOUDS BELOW 12,000 FEET WITH NO
SIGNIFICANT WEATHER AND/OR OBSTRUCTIONS TO VISIBILITY.

* - THESE STATIONS ARE NOT NWS OR FAA STATIONS...AND ARE NOT SUBJECT
    TO NWS AND FAA QUALITY CONTROL.

TXZ171-172-183>190-261700-
TEXAS HILL COUNTRY AND EDWARDS PLATEAU

CITY           SKY/WX    TMP DP  RH WIND       PRES   REMARKS
JUNCTION       CLOUDY    72  60  66 MISG      30.03S
*LLANO         FAIR      72  61  68 NW5       30.03F
BURNET         PTSUNNY   73  60  63 NW9       30.00F
*HORSESHOE BAY PTSUNNY   70  63  78 CALM      30.01R
*LAGO VISTA    PTSUNNY   71  64  78 NW9       29.99S
*KERRVILLE     CLOUDY    70  64  81 N5        30.02S
*FREDERICKSBRG CLOUDY    68  62  78 N3        30.02S
*ROCKSPRINGS   CLOUDY    68  61  77 E7        30.09S
*BOERNE        FAIR      70  63  78 N5        30.00F
HONDO          FAIR      76  65  68 VRB5      29.98F
*UVALDE        NOT AVBL
DEL RIO        FAIR      80  65  59 CALM      29.99S
*LAUGHLIN AFB  FAIR      76  65  67 CALM      29.99F
*SPOFFORD      NOT AVBL
*EAGLE PASS    PTSUNNY   77  63  61 CALM      30.00S
CARRIZO SPRGS  CLOUDY    73  64  73 N3        29.98S
$$

TXZ173-191>194-202-209-217>225-228-261700-
CENTRAL AND SOUTH CENTRAL TEXAS

CITY           SKY/WX    TMP DP  RH WIND       PRES   REMARKS
GEORGETOWN     FAIR      74  64  71 NW10      29.98F
*TAYLOR        FAIR      73  65  76 NW8       29.96S
AUSTIN/BERGSTM FAIR      75  65  70 VRB6      29.95R
AUSTIN/MABRY   FAIR      76  65  68 VRB3      29.97F
*PFLUGERVILLE  FAIR      75  64  69 N6        29.96S
SAN MARCOS     FAIR      78  67  68 VRB7      29.96S
NEW BRAUNFELS  FAIR      80  63  55 VRB5      29.95S
*RANDOLPH AFB    N/A     77  64  64 N7        29.96S
*SEGUIN        FAIR      75  64  68 E5        29.99S
SAN ANTONIO    PTSUNNY   76  64  66 N6        29.96F
STINSON FIELD  FAIR      75  64  68 CALM      29.94F
*KELLY FIELD   MOSUNNY   77  66  69 NW6       29.95F
*PLEASANTON    FAIR      78  67  68 CALM      29.96F
*KENEDY        CLOUDY    75  67  76 NW8       29.97S
*LA GRANGE     FAIR      78  65  64 E3        29.91F
*GIDDINGS      FAIR      74  63  67 N3        29.94F
*GONZALES      FAIR      78  67  71 CALM      29.93F
$$

TXZ163>164-176>182-195>201-210>213-226-227-235-261700-
SOUTHEAST TEXAS

CITY           SKY/WX    TMP DP  RH WIND       PRES   REMARKS
COLLEGE STN    FAIR      77  66  68 NW10      29.92F
*BRYAN         FAIR      78  67  68 W9        29.94S
*CALDWELL      FAIR      76  67  76 N10G18    29.93F
*CROCKETT      NOT AVBL
*BRENHAM       FAIR      79  66  65 N6        29.93S
HUNTSVILLE     FAIR      80  63  55 N5        29.91F
CONROE         FAIR      80  67  64 NW6       29.92S
HOUSTON BUSH   FAIR      78  64  61 VRB5      29.91S
HOUSTON HOBBY  PTSUNNY   81  64  56 NW6       29.90S
*HOUSTON SW AP FAIR      78  66  66 NW6       29.93R
PEARLAND         N/A     80  62  54 N5        29.92S
HOUSTON HOOKS  FAIR      78  63  59 CALM      29.91F
ELLINGTON FLD  NOT AVBL
SUGAR LAND     FAIR      78  67  68 NW3       29.92R
*HOUSTON EXEC  FAIR      79  68  69 CALM      29.93S
*CLEVELAND MUN FAIR      75  67  77 CALM      29.92F HAZE
*WHARTON       FAIR      76  64  64 W5        29.94R
*COLUMBUS      FAIR      78  65  64 NW5       29.94R
*EAGLE LAKE    FAIR      80  68  67 N7        29.92
$$

TXZ214>216-236>238-261700-
THE UPPER TEXAS COAST

CITY           SKY/WX    TMP DP  RH WIND       PRES   REMARKS
*ORANGE        FAIR      74  67  78 CALM      29.93F
PORT ARTHUR    FAIR      76  68  76 VRB3      29.90F
GALVESTON      FAIR      81  66  60 N13       29.91R
ANGLETON       FAIR      78  65  63 NW7       29.91S
*BAY CITY      FAIR      78  68  69 NW7       29.93R
PALACIOS       FAIR      78  66  66 N8        29.93R
$$

TXZ229>234-239>247-261700-
TEXAS COASTAL BEND AND RIO GRANDE PLAINS

CITY           SKY/WX    TMP DP  RH WIND       PRES   REMARKS
VICTORIA       FAIR      79  66  64 NW6       29.94R
*BEEVILLE      CLOUDY    77  70  80 N6        29.95R
ROCKPORT       FAIR      80  68  66 N8        29.92S
*PORT ARANSAS  FAIR      76  72  85 N13       29.93R
*PORT LAVACA   FAIR      79  70  73 N8        29.94R
*INGLESIDE     FAIR      78  73  84 NE8       29.92S
CORPUS CHRISTI FAIR      80  70  71 N7        29.91S
CORPUS NAS     PTSUNNY   83  71  67 NE8       29.90R
*ROBSTOWN      FAIR      78  68  71 NW5       29.93S
ALICE          FAIR      81  67  62 N8        29.93R
KINGSVILLE NAS FAIR      80  70  71 E3        29.92S
COTULLA        CLOUDY    74  67  78 NW6       29.98S
LAREDO         CLOUDY    76  67  73 CALM      29.97R
$$

TXZ248>255-261700-
DEEP SOUTH TEXAS

CITY           SKY/WX    TMP DP  RH WIND       PRES   REMARKS
BROWNSVILLE    FAIR      84  72  67 NE15      29.88F
PORT ISABEL    FAIR      82  73  74 NE17G23   29.88S
HARLINGEN      CLOUDY    78  72  81 E17       29.92R
*HEBBRONVILLE  CLOUDY    76  66  71 SE8       29.97R
MCALLEN        CLOUDY    79  70  73 MISG      29.93R
*WESLACO       CLOUDY    77  71  79 NE14      29.92S
FALFURRIAS     NOT AVBL
EDINBURG       TSTM      76  72  86 E9        29.93F
*ZAPATA        NOT AVBL
$$

TXZ213>215-236>238-242>244-246-247-251-254-255-261700-
CMAN STATIONS

STATION/POSITION TIME  TEMP    WIND        PRES    WAVE
                       AIR SEA DIR/SP/G            HT/PER
                 (UTC) (F)     (DEG/KT/KT) (MB)    (FT/S)
SABINE PASS      1524   73 82  340/  4/  9 1014.6
NORTH JETTY/GLS  1524   77 81   10/  7/  9 1011.4
EAGLE POINT      1530   75 80  360/  6/  8 1012.2
MORGANS POINT    1530   75 81  360/  2/  3 1012.6
PORT O`CONNOR    1530   73 81  330/  7/  9 1013.3
PORT ARANSAS     1500   78 81  100/  9/  9 1012.1
MALAQUITE BEACH  1530   78 88  100/ 18/ 20 1011.8
BAFFIN BAY       1530   77 81   90/ 11/ 13 1013.2
PORT ISABEL      1530   80 80   60/  9/ 15 1013.8
$$



USA.gov is the U.S. government's official web portal to all federal, state and local government web resources and services.